Facebook Twitter

Wetterstation Dahle

Messwerte
  Temperatur Wetter Niederschlag Feuchte Wind
Do, 03:15 Uhr 8.6 °C - - 100.0 % 3 km/h SO
Do, 03:00 Uhr 8.8 °C - - 100.0 % 2 km/h O
Do, 02:45 Uhr 8.5 °C - - 100.0 % 2 km/h O
Do, 02:30 Uhr 8.8 °C - - 100.0 % 1 km/h O
Do, 02:15 Uhr 9.0 °C - - 100.0 % 3 km/h NO
Do, 02:00 Uhr 9.1 °C - - 100.0 % 4 km/h SW
Do, 01:45 Uhr 9.3 °C - - 100.0 % 4 km/h N
Do, 01:30 Uhr 9.4 °C - - 100.0 % 3 km/h NO
Do, 01:15 Uhr 9.6 °C - - 100.0 % 1 km/h O
Do, 01:00 Uhr 9.8 °C - - 100.0 % 3 km/h NO
Do, 00:45 Uhr 10.2 °C - - 100.0 % 3 km/h NO
Do, 00:30 Uhr 10.7 °C - - 100.0 % 2 km/h NO
Do, 00:15 Uhr 10.9 °C - - 100.0 % 2 km/h NO
Do, 00:00 Uhr 11.2 °C - - 100.0 % 1 km/h O
Mi, 23:45 Uhr 11.5 °C - - 100.0 % 4 km/h NO
Mi, 23:30 Uhr 11.7 °C - - 100.0 % 3 km/h O
Mi, 23:15 Uhr 12.1 °C - - 100.0 % 3 km/h NO
Mi, 23:00 Uhr 12.7 °C - - 100.0 % 2 km/h O
Mi, 22:45 Uhr 12.8 °C - - 100.0 % 2 km/h O
Mi, 22:30 Uhr 13.0 °C - - 100.0 % 2 km/h SO

Alle Zeitangaben MESZ